Time,TemperatureF,DewpointF,PressureIn,WindDirection,WindDirectionDegrees,WindSpeedMPH,WindSpeedGustMPH,Humidity,HourlyPrecipIn,Conditions,Clouds,dailyrainin,SoftwareType,DateUTC
2014-09-01 00:01:00,70.1,69.5,29.90,SSW,208,0.0,0.0,98,0.00,,CLR,2.26,VWS V14.01,2014-09-01 04:01:00,
2014-09-01 00:02:00,70.0,69.4,29.90,SSW,208,0.0,0.0,98,0.00,,FEW140,0.00,VWS V14.01,2014-09-01 04:02:00,
2014-09-01 00:04:00,70.0,69.4,29.90,SSW,208,0.0,0.0,98,0.00,,FEW140,0.00,VWS V14.01,2014-09-01 04:04:00,
2014-09-01 00:05:00,70.0,69.4,29.90,SSW,208,0.0,0.0,98,0.00,,FEW140,0.00,VWS V14.01,2014-09-01 04:05:00,
2014-09-01 00:10:00,69.9,69.3,29.90,SSW,208,0.0,0.0,98,0.00,,FEW140,0.00,VWS V14.01,2014-09-01 04:10:00,
2014-09-01 00:15:00,69.9,69.3,29.90,SSW,208,0.0,0.0,98,0.00,,FEW140,0.00,VWS V14.01,2014-09-01 04:15:00,
2014-09-01 00:20:00,69.8,69.2,29.90,SSW,208,0.0,0.0,98,0.00,,FEW140,0.00,VWS V14.01,2014-09-01 04:20:00,
2014-09-01 00:25:00,69.7,69.1,29.90,SSW,208,0.0,0.0,98,0.00,,FEW140,0.00,VWS V14.01,2014-09-01 04:25:00,
2014-09-01 00:30:00,69.6,69.0,29.90,SSW,208,0.0,0.0,98,0.00,,FEW140,0.00,VWS V14.01,2014-09-01 04:30:00,
2014-09-01 00:35:00,69.4,68.8,29.90,SSW,208,0.0,0.0,98,0.00,,-RA,0.00,VWS V14.01,2014-09-01 04:35:00,
2014-09-01 00:40:00,69.3,69.0,29.90,SSW,208,0.0,0.0,99,0.00,,-RA,0.00,VWS V14.01,2014-09-01 04:40:00,
2014-09-01 00:45:00,69.4,69.1,29.90,SSW,208,0.0,0.0,99,0.00,,-RA,0.00,VWS V14.01,2014-09-01 04:45:00,
2014-09-01 00:50:00,69.4,69.1,29.90,SSW,208,0.0,0.0,99,0.00,,-RA,0.00,VWS V14.01,2014-09-01 04:50:00,
2014-09-01 00:55:00,69.3,69.0,29.90,SSW,208,0.0,0.0,99,0.00,,-RA,0.00,VWS V14.01,2014-09-01 04:55:00,
2014-09-01 01:01:00,69.4,69.1,29.90,SSW,208,0.0,0.0,99,0.00,,-RA,0.00,VWS V14.01,2014-09-01 05:01:00,
2014-09-01 01:06:00,69.5,69.2,29.90,SSW,208,0.0,0.0,99,0.00,,RA,0.00,VWS V14.01,2014-09-01 05:06:00,
2014-09-01 01:11:00,69.5,69.2,29.91,SSW,208,0.0,0.0,99,0.00,,RA,0.00,VWS V14.01,2014-09-01 05:11:00,
2014-09-01 01:16:00,69.4,69.1,29.91,SSW,208,0.0,0.0,99,0.00,,RA,0.00,VWS V14.01,2014-09-01 05:16:00,
2014-09-01 01:21:00,69.2,68.9,29.91,SSW,208,0.0,0.0,99,0.00,,RA,0.00,VWS V14.01,2014-09-01 05:21:00,
2014-09-01 01:26:00,69.1,68.8,29.91,SSW,208,0.0,0.0,99,0.00,,RA,0.00,VWS V14.01,2014-09-01 05:26:00,
2014-09-01 01:31:00,69.1,68.8,29.91,SSW,208,0.0,0.0,99,0.00,,RA,0.00,VWS V14.01,2014-09-01 05:31:00,
2014-09-01 01:36:00,69.0,68.7,29.91,SSW,208,0.0,0.0,99,0.00,,SCT130,0.00,VWS V14.01,2014-09-01 05:36:00,
2014-09-01 01:41:00,69.0,68.7,29.91,SSW,208,0.0,0.0,99,0.00,,SCT130,0.00,VWS V14.01,2014-09-01 05:41:00,
2014-09-01 01:47:00,69.0,68.7,29.91,SSW,208,0.0,0.0,99,0.00,,SCT130,0.00,VWS V14.01,2014-09-01 05:47:00,
2014-09-01 01:52:00,68.9,68.6,29.91,SSW,208,0.0,0.0,99,0.00,,SCT130,0.00,VWS V14.01,2014-09-01 05:52:00,
2014-09-01 01:57:00,68.9,68.6,29.92,SSW,208,0.0,0.0,99,0.00,,SCT130,0.00,VWS V14.01,2014-09-01 05:57:00,
2014-09-01 02:02:00,68.9,68.6,29.92,SSW,208,0.0,0.0,99,0.00,,SCT130,0.00,VWS V14.01,2014-09-01 06:02:00,
2014-09-01 02:07:00,68.9,68.6,29.92,SSW,208,0.0,0.0,99,0.00,,SCT130,0.00,VWS V14.01,2014-09-01 06:07:00,
2014-09-01 02:12:00,69.1,68.8,29.92,SSW,208,0.0,0.0,99,0.00,,SCT130,0.00,VWS V14.01,2014-09-01 06:12:00,
2014-09-01 02:17:00,69.2,68.9,29.92,SSW,208,0.0,0.0,99,0.00,,SCT130,0.00,VWS V14.01,2014-09-01 06:17:00,
2014-09-01 02:22:00,69.4,69.4,29.92,SSW,208,0.0,0.0,100,0.00,,SCT130,0.00,VWS V14.01,2014-09-01 06:22:00,
2014-09-01 02:27:00,69.5,69.5,29.92,SSW,208,0.0,0.0,100,0.00,,SCT130,0.00,VWS V14.01,2014-09-01 06:27:00,
2014-09-01 02:32:00,69.6,69.6,29.92,SSW,208,0.0,0.0,100,0.00,,BKN230,0.00,VWS V14.01,2014-09-01 06:32:00,
2014-09-01 02:37:00,69.7,69.7,29.92,SSW,208,0.0,0.0,100,0.00,,BKN230,0.00,VWS V14.01,2014-09-01 06:37:00,
2014-09-01 02:42:00,69.7,69.7,29.92,SSW,208,0.0,0.0,100,0.00,,BKN230,0.00,VWS V14.01,2014-09-01 06:42:00,
2014-09-01 02:48:00,69.7,69.7,29.92,SSW,208,0.0,0.0,100,0.00,,BKN230,0.00,VWS V14.01,2014-09-01 06:48:00,
2014-09-01 02:53:00,69.7,69.7,29.91,SSW,208,0.0,0.0,100,0.00,,BKN230,0.00,VWS V14.01,2014-09-01 06:53:00,
2014-09-01 02:58:00,69.8,69.8,29.91,SSW,208,0.0,0.0,100,0.00,,BKN230,0.00,VWS V14.01,2014-09-01 06:58:00,
2014-09-01 03:03:00,69.8,69.8,29.91,SSW,208,0.0,0.0,100,0.00,,BKN230,0.00,VWS V14.01,2014-09-01 07:03:00,
2014-09-01 03:08:00,69.9,69.9,29.91,SSW,208,0.0,0.0,100,0.00,,BKN230,0.00,VWS V14.01,2014-09-01 07:08:00,
2014-09-01 03:13:00,69.9,69.9,29.91,SSW,208,0.0,0.0,100,0.00,,BKN230,0.00,VWS V14.01,2014-09-01 07:13:00,
2014-09-01 03:18:00,69.8,69.8,29.91,SSW,208,0.0,0.0,100,0.00,,BKN230,0.00,VWS V14.01,2014-09-01 07:18:00,
2014-09-01 03:23:00,69.8,69.8,29.91,SSW,208,0.0,0.0,100,0.00,,BKN230,0.00,VWS V14.01,2014-09-01 07:23:00,
2014-09-01 03:28:00,69.8,69.8,29.91,SSW,208,0.0,0.0,100,0.00,,BKN230,0.00,VWS V14.01,2014-09-01 07:28:00,
2014-09-01 03:33:00,69.9,69.9,29.91,SSW,208,0.0,0.0,100,0.00,,OVC042,0.00,VWS V14.01,2014-09-01 07:33:00,
2014-09-01 03:38:00,69.9,69.9,29.91,SSW,208,0.0,0.0,100,0.00,,OVC042,0.00,VWS V14.01,2014-09-01 07:38:00,
2014-09-01 03:43:00,69.9,69.9,29.91,SSW,208,0.0,0.0,100,0.00,,OVC042,0.00,VWS V14.01,2014-09-01 07:43:00,
2014-09-01 03:48:00,70.0,70.0,29.91,SSW,208,0.0,0.0,100,0.00,,OVC042,0.00,VWS V14.01,2014-09-01 07:48:00,
2014-09-01 03:54:00,70.1,70.1,29.91,SSW,208,0.0,0.0,100,0.00,,OVC042,0.00,VWS V14.01,2014-09-01 07:54:00,
2014-09-01 03:59:00,70.1,70.1,29.91,SSW,208,0.0,0.0,100,0.00,,OVC042,0.00,VWS V14.01,2014-09-01 07:59:00,
2014-09-01 04:04:00,70.1,70.1,29.91,SSW,208,0.0,0.0,100,0.00,,OVC042,0.00,VWS V14.01,2014-09-01 08:04:00,
2014-09-01 04:09:00,70.1,70.1,29.91,SSW,208,0.0,0.0,100,0.00,,OVC042,0.00,VWS V14.01,2014-09-01 08:09:00,
2014-09-01 04:14:00,70.2,70.2,29.91,SSW,208,0.0,0.0,100,0.00,,OVC042,0.00,VWS V14.01,2014-09-01 08:14:00,
2014-09-01 04:19:00,70.2,70.2,29.91,SSW,208,0.0,0.0,100,0.00,,OVC042,0.00,VWS V14.01,2014-09-01 08:19:00,
2014-09-01 04:24:00,70.3,70.3,29.91,SSW,208,0.0,0.0,100,0.00,,OVC042,0.00,VWS V14.01,2014-09-01 08:24:00,
2014-09-01 04:29:00,70.4,70.4,29.91,SSW,208,2.0,3.0,100,0.00,,OVC042,0.00,VWS V14.01,2014-09-01 08:29:00,
2014-09-01 04:34:00,70.5,70.5,29.91,SSW,208,0.0,0.0,100,0.00,,OVC140,0.00,VWS V14.01,2014-09-01 08:34:00,
2014-09-01 04:39:00,70.6,70.6,29.91,SSW,208,0.0,0.0,100,0.00,,OVC140,0.00,VWS V14.01,2014-09-01 08:39:00,
2014-09-01 04:44:00,70.6,70.6,29.91,SSW,208,0.0,0.0,100,0.00,,OVC140,0.00,VWS V14.01,2014-09-01 08:44:00,
2014-09-01 04:49:00,70.6,70.6,29.91,SSW,208,0.0,0.0,100,0.00,,OVC140,0.00,VWS V14.01,2014-09-01 08:49:00,
2014-09-01 04:55:00,70.6,70.6,29.91,SSW,208,0.0,0.0,100,0.00,,OVC140,0.00,VWS V14.01,2014-09-01 08:55:00,
2014-09-01 05:00:00,70.7,70.7,29.91,SSW,208,0.0,2.0,100,0.00,,OVC140,0.00,VWS V14.01,2014-09-01 09:00:00,
2014-09-01 05:05:00,70.7,70.7,29.91,SSW,208,0.0,0.0,100,0.00,,OVC140,0.00,VWS V14.01,2014-09-01 09:05:00,
2014-09-01 05:10:00,70.7,70.7,29.91,SSW,208,1.0,2.0,100,0.00,,OVC140,0.00,VWS V14.01,2014-09-01 09:10:00,
2014-09-01 05:15:00,70.7,70.7,29.91,SSW,208,0.0,1.0,100,0.00,,OVC140,0.00,VWS V14.01,2014-09-01 09:15:00,
2014-09-01 05:20:00,70.7,70.7,29.91,SSW,208,0.0,2.0,100,0.00,,OVC140,0.00,VWS V14.01,2014-09-01 09:20:00,
2014-09-01 05:25:00,70.8,70.8,29.91,SSW,208,0.0,1.0,100,0.00,,OVC140,0.00,VWS V14.01,2014-09-01 09:25:00,
2014-09-01 05:30:00,70.8,70.8,29.91,SSW,208,0.0,1.0,100,0.00,,OVC140,0.00,VWS V14.01,2014-09-01 09:30:00,
2014-09-01 05:35:00,70.8,70.8,29.92,SSW,208,0.0,2.0,100,0.00,,OVC120,0.00,VWS V14.01,2014-09-01 09:35:00,
2014-09-01 05:40:00,70.9,70.9,29.92,SSW,208,0.0,1.0,100,0.00,,OVC120,0.00,VWS V14.01,2014-09-01 09:40:00,
2014-09-01 05:45:00,70.9,70.9,29.92,SSW,208,0.0,0.0,100,0.00,,OVC120,0.00,VWS V14.01,2014-09-01 09:45:00,
2014-09-01 05:50:00,70.9,70.9,29.92,SSW,208,0.0,0.0,100,0.00,,OVC120,0.00,VWS V14.01,2014-09-01 09:50:00,
2014-09-01 05:56:00,71.0,71.0,29.92,SSW,208,0.0,1.0,100,0.00,,OVC120,0.00,VWS V14.01,2014-09-01 09:56:00,
2014-09-01 06:01:00,71.0,71.0,29.92,SSW,208,0.0,2.0,100,0.00,,OVC120,0.00,VWS V14.01,2014-09-01 10:01:00,
2014-09-01 06:06:00,71.0,71.0,29.92,SSW,208,0.0,2.0,100,0.00,,OVC120,0.00,VWS V14.01,2014-09-01 10:06:00,
2014-09-01 06:11:00,71.0,71.0,29.91,SSW,208,0.0,0.0,100,0.00,,OVC120,0.00,VWS V14.01,2014-09-01 10:11:00,
2014-09-01 06:16:00,71.0,71.0,29.91,SSW,208,0.0,1.0,100,0.00,,OVC120,0.00,VWS V14.01,2014-09-01 10:16:00,
2014-09-01 06:21:00,71.1,71.1,29.91,SSW,208,2.0,2.0,100,0.00,,OVC120,0.00,VWS V14.01,2014-09-01 10:21:00,
2014-09-01 06:26:00,71.1,71.1,29.91,SSW,208,0.0,0.0,100,0.00,,OVC120,0.00,VWS V14.01,2014-09-01 10:26:00,
2014-09-01 06:31:00,71.1,71.1,29.91,SSW,208,0.0,0.0,100,0.00,,OVC120,0.00,VWS V14.01,2014-09-01 10:31:00,
2014-09-01 06:36:00,71.2,71.2,29.91,SSW,208,0.0,0.0,100,0.00,,BKN140,0.00,VWS V14.01,2014-09-01 10:36:00,
2014-09-01 06:41:00,71.2,71.2,29.91,SSW,208,0.0,0.0,100,0.00,,BKN140,0.00,VWS V14.01,2014-09-01 10:41:00,
2014-09-01 06:46:00,71.2,71.2,29.91,SSW,208,0.0,0.0,100,0.00,,BKN140,0.00,VWS V14.01,2014-09-01 10:46:00,
2014-09-01 06:51:00,71.1,71.1,29.91,SSW,208,0.0,0.0,100,0.00,,BKN140,0.00,VWS V14.01,2014-09-01 10:51:00,
2014-09-01 06:57:00,71.1,71.1,29.92,SSW,208,0.0,0.0,100,0.00,,BKN140,0.00,VWS V14.01,2014-09-01 10:57:00,
2014-09-01 07:02:00,71.1,71.1,29.92,SSW,208,0.0,0.0,100,0.00,,BKN140,0.00,VWS V14.01,2014-09-01 11:02:00,
2014-09-01 07:07:00,71.2,71.2,29.92,SSW,208,0.0,0.0,100,0.00,,BKN140,0.00,VWS V14.01,2014-09-01 11:07:00,
2014-09-01 07:12:00,71.2,71.2,29.91,SSW,208,0.0,1.0,100,0.00,,BKN140,0.00,VWS V14.01,2014-09-01 11:12:00,
2014-09-01 07:17:00,71.2,71.2,29.92,SSW,208,0.0,0.0,100,0.00,,BKN140,0.00,VWS V14.01,2014-09-01 11:17:00,
2014-09-01 07:22:00,71.2,71.2,29.91,SSW,208,0.0,1.0,100,0.00,,BKN140,0.00,VWS V14.01,2014-09-01 11:22:00,
2014-09-01 07:27:00,71.3,71.3,29.91,SSW,208,0.0,0.0,100,0.00,,BKN140,0.00,VWS V14.01,2014-09-01 11:27:00,
2014-09-01 07:32:00,71.3,71.3,29.91,SSW,208,0.0,1.0,100,0.00,,BKN180,0.00,VWS V14.01,2014-09-01 11:32:00,
2014-09-01 07:37:00,71.4,71.4,29.92,SSW,208,0.0,0.0,100,0.00,,BKN180,0.00,VWS V14.01,2014-09-01 11:37:00,
2014-09-01 07:42:00,71.5,71.5,29.92,SSW,208,0.0,1.0,100,0.00,,BKN180,0.00,VWS V14.01,2014-09-01 11:42:00,
2014-09-01 07:47:00,71.7,71.7,29.92,SSW,208,1.0,3.0,100,0.00,,BKN180,0.00,VWS V14.01,2014-09-01 11:47:00,
2014-09-01 07:52:00,71.8,71.8,29.92,SSW,208,3.0,3.0,100,0.00,,BKN180,0.00,VWS V14.01,2014-09-01 11:52:00,
2014-09-01 07:58:00,71.9,71.9,29.92,SSW,208,0.0,1.0,100,0.00,,BKN180,0.00,VWS V14.01,2014-09-01 11:58:00,
2014-09-01 08:03:00,72.0,72.0,29.92,SSW,208,0.0,0.0,100,0.00,,BKN180,0.00,VWS V14.01,2014-09-01 12:03:00,
2014-09-01 08:08:00,72.0,72.0,29.91,SSW,208,0.0,2.0,100,0.00,,BKN180,0.00,VWS V14.01,2014-09-01 12:08:00,
2014-09-01 08:13:00,72.1,72.1,29.92,SW,215,2.0,2.0,100,0.00,,BKN180,0.00,VWS V14.01,2014-09-01 12:13:00,
2014-09-01 08:18:00,72.2,72.2,29.91,SSW,205,0.0,2.0,100,0.00,,BKN180,0.00,VWS V14.01,2014-09-01 12:18:00,
2014-09-01 08:23:00,72.4,72.4,29.91,SW,231,4.0,5.0,100,0.00,,BKN180,0.00,VWS V14.01,2014-09-01 12:23:00,
2014-09-01 08:28:00,72.6,72.6,29.92,SW,229,2.0,2.0,100,0.00,,BKN180,0.00,VWS V14.01,2014-09-01 12:28:00,
2014-09-01 08:33:00,72.7,72.7,29.91,SW,229,1.0,2.0,100,0.00,,SCT180,0.00,VWS V14.01,2014-09-01 12:33:00,
2014-09-01 08:38:00,72.9,72.9,29.91,SW,229,1.0,4.0,100,0.00,,SCT180,0.00,VWS V14.01,2014-09-01 12:38:00,
2014-09-01 08:43:00,73.0,73.0,29.91,SSW,213,3.0,5.0,100,0.00,,SCT180,0.00,VWS V14.01,2014-09-01 12:43:00,
2014-09-01 08:48:00,73.1,73.1,29.91,SSW,211,0.0,2.0,100,0.00,,SCT180,0.00,VWS V14.01,2014-09-01 12:48:00,
2014-09-01 08:53:00,73.3,73.3,29.91,SSW,211,2.0,2.0,100,0.00,,SCT180,0.00,VWS V14.01,2014-09-01 12:53:00,
2014-09-01 08:59:00,73.5,73.5,29.91,SSW,211,4.0,4.0,100,0.00,,SCT180,0.00,VWS V14.01,2014-09-01 12:59:00,
2014-09-01 09:04:00,73.5,73.5,29.91,SW,222,4.0,4.0,100,0.00,,SCT180,0.00,VWS V14.01,2014-09-01 13:04:00,
2014-09-01 09:09:00,73.5,73.5,29.91,SW,221,3.0,3.0,100,0.02,,SCT180,0.02,VWS V14.01,2014-09-01 13:09:00,
2014-09-01 09:14:00,73.4,73.1,29.91,SW,216,1.0,5.0,99,0.02,,SCT180,0.02,VWS V14.01,2014-09-01 13:14:00,
2014-09-01 09:19:00,73.3,73.0,29.91,SW,216,0.0,3.0,99,0.02,,SCT180,0.02,VWS V14.01,2014-09-01 13:19:00,
2014-09-01 09:24:00,73.3,73.0,29.91,SW,216,0.0,0.0,99,0.05,,SCT180,0.05,VWS V14.01,2014-09-01 13:24:00,
2014-09-01 09:29:00,73.2,72.9,29.91,SW,216,1.0,3.0,99,0.06,,SCT180,0.06,VWS V14.01,2014-09-01 13:29:00,
2014-09-01 09:34:00,73.2,72.9,29.91,SSW,207,1.0,4.0,99,0.06,,BKN060,0.06,VWS V14.01,2014-09-01 13:34:00,
2014-09-01 09:39:00,73.3,73.0,29.91,SSW,207,0.0,1.0,99,0.06,,BKN060,0.06,VWS V14.01,2014-09-01 13:39:00,
2014-09-01 09:44:00,73.4,73.1,29.91,SSW,211,1.0,5.0,99,0.06,,BKN060,0.06,VWS V14.01,2014-09-01 13:44:00,
2014-09-01 09:49:00,73.6,73.3,29.91,SSW,211,2.0,4.0,99,0.06,,BKN060,0.06,VWS V14.01,2014-09-01 13:49:00,
2014-09-01 09:55:00,73.8,73.8,29.91,SSW,192,4.0,5.0,100,0.06,,BKN060,0.06,VWS V14.01,2014-09-01 13:55:00,
2014-09-01 10:00:00,74.0,73.7,29.91,SSW,198,3.0,5.0,99,0.06,,BKN060,0.06,VWS V14.01,2014-09-01 14:00:00,
2014-09-01 10:05:00,74.0,73.7,29.91,SSW,207,2.0,5.0,99,0.06,,BKN060,0.06,VWS V14.01,2014-09-01 14:05:00,
2014-09-01 10:10:00,74.1,73.8,29.91,SSW,207,0.0,3.0,99,0.06,,BKN060,0.06,VWS V14.01,2014-09-01 14:10:00,
2014-09-01 10:15:00,74.2,73.9,29.91,SSW,211,5.0,5.0,99,0.04,,BKN060,0.06,VWS V14.01,2014-09-01 14:15:00,
2014-09-01 10:20:00,74.3,74.0,29.91,SSW,212,3.0,3.0,99,0.04,,BKN060,0.06,VWS V14.01,2014-09-01 14:20:00,
2014-09-01 10:25:00,74.4,74.1,29.91,SSW,211,0.0,5.0,99,0.04,,BKN060,0.06,VWS V14.01,2014-09-01 14:25:00,
2014-09-01 10:30:00,74.7,74.4,29.91,SSW,211,0.0,3.0,99,0.00,,BKN060,0.06,VWS V14.01,2014-09-01 14:30:00,
2014-09-01 10:35:00,74.9,74.3,29.91,SSW,211,0.0,4.0,98,0.00,,FEW008,0.06,VWS V14.01,2014-09-01 14:35:00,
2014-09-01 10:40:00,74.8,74.2,29.91,SSW,210,0.0,2.0,98,0.00,,FEW008,0.06,VWS V14.01,2014-09-01 14:40:00,
2014-09-01 10:46:00,74.7,74.1,29.91,SSW,210,0.0,4.0,98,0.00,,FEW008,0.06,VWS V14.01,2014-09-01 14:46:00,
2014-09-01 10:51:00,74.7,73.8,29.91,SSW,207,3.0,5.0,97,0.00,,FEW008,0.06,VWS V14.01,2014-09-01 14:51:00,
2014-09-01 10:56:00,74.4,73.5,29.91,SSW,200,0.0,6.0,97,0.00,,FEW008,0.06,VWS V14.01,2014-09-01 14:56:00,
2014-09-01 11:01:00,74.2,73.3,29.90,South,185,2.0,4.0,97,0.00,,FEW008,0.06,VWS V14.01,2014-09-01 15:01:00,
2014-09-01 11:06:00,74.6,74.0,29.90,SSW,212,3.0,5.0,98,0.00,,FEW008,0.06,VWS V14.01,2014-09-01 15:06:00,
2014-09-01 11:11:00,75.2,74.6,29.90,SW,228,7.0,7.0,98,0.00,,FEW008,0.06,VWS V14.01,2014-09-01 15:11:00,
2014-09-01 11:16:00,75.5,74.6,29.90,South,187,7.0,7.0,97,0.00,,FEW008,0.06,VWS V14.01,2014-09-01 15:16:00,
2014-09-01 11:21:00,75.4,74.2,29.90,SSW,193,3.0,3.0,96,0.00,,FEW008,0.06,VWS V14.01,2014-09-01 15:21:00,
2014-09-01 11:26:00,75.8,74.9,29.89,SW,221,1.0,1.0,97,0.00,,FEW008,0.06,VWS V14.01,2014-09-01 15:26:00,
2014-09-01 11:31:00,75.8,74.6,29.89,South,182,1.0,1.0,96,0.00,,FEW008,0.06,VWS V14.01,2014-09-01 15:31:00,
2014-09-01 11:36:00,75.7,74.2,29.89,South,180,2.0,5.0,95,0.00,,FEW170,0.06,VWS V14.01,2014-09-01 15:36:00,
2014-09-01 11:41:00,75.8,74.3,29.89,SSW,202,2.0,6.0,95,0.01,,FEW170,0.07,VWS V14.01,2014-09-01 15:41:00,
2014-09-01 11:47:00,76.3,75.1,29.89,SW,236,1.0,5.0,96,0.01,,FEW170,0.07,VWS V14.01,2014-09-01 15:47:00,
2014-09-01 11:52:00,76.9,75.4,29.88,SSW,211,2.0,2.0,95,0.01,,FEW170,0.07,VWS V14.01,2014-09-01 15:52:00,
2014-09-01 11:57:00,77.6,75.7,29.88,SW,225,1.0,8.0,94,0.01,,FEW170,0.07,VWS V14.01,2014-09-01 15:57:00,
2014-09-01 12:02:00,77.7,74.9,29.88,SW,215,4.0,5.0,91,0.01,,FEW180,0.07,VWS V14.01,2014-09-01 16:02:00,
2014-09-01 12:07:00,77.8,75.3,29.88,South,169,5.0,6.0,92,0.01,,FEW180,0.07,VWS V14.01,2014-09-01 16:07:00,
2014-09-01 12:12:00,78.2,75.0,29.88,SE,144,4.0,7.0,90,0.01,,FEW180,0.07,VWS V14.01,2014-09-01 16:12:00,
2014-09-01 12:17:00,78.3,75.1,29.88,SSW,213,4.0,7.0,90,0.01,,FEW180,0.07,VWS V14.01,2014-09-01 16:17:00,
2014-09-01 12:22:00,78.9,76.1,29.88,WSW,241,3.0,3.0,91,0.01,,FEW180,0.07,VWS V14.01,2014-09-01 16:22:00,
2014-09-01 12:27:00,79.2,75.3,29.88,SW,217,1.0,9.0,88,0.01,,FEW180,0.07,VWS V14.01,2014-09-01 16:27:00,
2014-09-01 12:32:00,79.3,75.1,29.88,SSW,213,6.0,7.0,87,0.01,,FEW028,0.07,VWS V14.01,2014-09-01 16:32:00,
2014-09-01 12:38:00,79.6,75.4,29.87,South,182,2.0,6.0,87,0.01,,FEW028,0.07,VWS V14.01,2014-09-01 16:38:00,
2014-09-01 12:43:00,79.8,75.2,29.87,SSW,205,1.0,4.0,86,0.00,,FEW028,0.07,VWS V14.01,2014-09-01 16:43:00,
2014-09-01 12:48:00,80.1,75.9,29.87,SSW,198,0.0,4.0,87,0.00,,FEW028,0.07,VWS V14.01,2014-09-01 16:48:00,
2014-09-01 12:53:00,80.5,75.6,29.87,SE,144,6.0,6.0,85,0.00,,FEW028,0.07,VWS V14.01,2014-09-01 16:53:00,
2014-09-01 12:58:00,80.7,74.7,29.86,SW,229,4.0,10.0,82,0.00,,FEW028,0.07,VWS V14.01,2014-09-01 16:58:00,
2014-09-01 13:03:00,80.8,75.5,29.86,South,171,0.0,4.0,84,0.00,,FEW028,0.07,VWS V14.01,2014-09-01 17:03:00,
2014-09-01 13:08:00,80.8,75.2,29.86,SE,146,3.0,7.0,83,0.00,,FEW028,0.07,VWS V14.01,2014-09-01 17:08:00,
2014-09-01 13:13:00,80.6,74.6,29.86,South,186,2.0,5.0,82,0.00,,FEW028,0.07,VWS V14.01,2014-09-01 17:13:00,
2014-09-01 13:18:00,80.3,74.7,29.86,SSW,202,0.0,7.0,83,0.00,,FEW028,0.07,VWS V14.01,2014-09-01 17:18:00,
2014-09-01 13:23:00,80.3,74.3,29.85,SW,215,6.0,7.0,82,0.00,,FEW028,0.07,VWS V14.01,2014-09-01 17:23:00,
2014-09-01 13:28:00,80.7,74.7,29.85,SSW,200,2.0,5.0,82,0.00,,FEW028,0.07,VWS V14.01,2014-09-01 17:28:00,
2014-09-01 13:33:00,81.1,75.4,29.84,SSW,211,4.0,9.0,83,0.00,,BKN038,0.07,VWS V14.01,2014-09-01 17:33:00,
2014-09-01 13:39:00,81.4,75.4,29.84,SW,219,6.0,8.0,82,0.00,,BKN038,0.07,VWS V14.01,2014-09-01 17:39:00,
2014-09-01 13:44:00,81.5,76.2,29.84,South,169,2.0,6.0,84,0.00,,BKN038,0.07,VWS V14.01,2014-09-01 17:44:00,
2014-09-01 13:49:00,82.0,77.1,29.85,SW,219,4.0,7.0,85,0.00,,BKN038,0.07,VWS V14.01,2014-09-01 17:49:00,
2014-09-01 13:54:00,82.0,76.3,29.85,SW,223,5.0,7.0,83,0.00,,BKN038,0.07,VWS V14.01,2014-09-01 17:54:00,
2014-09-01 13:59:00,82.0,75.6,29.85,South,170,5.0,5.0,81,0.00,,BKN038,0.07,VWS V14.01,2014-09-01 17:59:00,
2014-09-01 14:04:00,81.6,74.8,29.85,SSW,212,2.0,9.0,80,0.00,,BKN038,0.07,VWS V14.01,2014-09-01 18:04:00,
2014-09-01 14:09:00,81.6,75.2,29.84,South,191,4.0,8.0,81,0.00,,BKN038,0.07,VWS V14.01,2014-09-01 18:09:00,
2014-09-01 14:14:00,81.5,75.1,29.85,SSW,212,1.0,8.0,81,0.00,,BKN038,0.07,VWS V14.01,2014-09-01 18:14:00,
2014-09-01 14:19:00,81.4,75.4,29.84,SSW,200,3.0,8.0,82,0.00,,BKN038,0.07,VWS V14.01,2014-09-01 18:19:00,
2014-09-01 14:24:00,81.2,75.6,29.84,SW,223,1.0,8.0,83,0.00,,BKN038,0.07,VWS V14.01,2014-09-01 18:24:00,
2014-09-01 14:29:00,81.4,75.7,29.84,SW,225,3.0,5.0,83,0.00,,BKN038,0.07,VWS V14.01,2014-09-01 18:29:00,
2014-09-01 14:34:00,81.7,74.9,29.84,WSW,249,4.0,7.0,80,0.00,,SCT046,0.07,VWS V14.01,2014-09-01 18:34:00,
2014-09-01 14:39:00,81.9,75.5,29.84,South,169,3.0,8.0,81,0.00,,SCT046,0.07,VWS V14.01,2014-09-01 18:39:00,
2014-09-01 14:44:00,81.6,74.8,29.84,SSW,202,6.0,10.0,80,0.00,,SCT046,0.07,VWS V14.01,2014-09-01 18:44:00,
2014-09-01 14:50:00,81.4,75.0,29.84,SSW,210,5.0,7.0,81,0.00,,SCT046,0.07,VWS V14.01,2014-09-01 18:50:00,
2014-09-01 14:55:00,81.6,75.2,29.84,South,182,5.0,6.0,81,0.00,,SCT046,0.07,VWS V14.01,2014-09-01 18:55:00,
2014-09-01 15:00:00,81.5,74.7,29.84,SSW,211,6.0,10.0,80,0.00,,SCT046,0.07,VWS V14.01,2014-09-01 19:00:00,
2014-09-01 15:05:00,81.3,74.5,29.83,SSW,195,2.0,8.0,80,0.00,,SCT046,0.07,VWS V14.01,2014-09-01 19:05:00,
2014-09-01 15:10:00,81.1,74.7,29.83,SSW,204,0.0,7.0,81,0.00,,SCT046,0.07,VWS V14.01,2014-09-01 19:10:00,
2014-09-01 15:15:00,80.8,74.8,29.84,SSW,209,3.0,7.0,82,0.00,,SCT046,0.07,VWS V14.01,2014-09-01 19:15:00,
2014-09-01 15:20:00,80.3,73.9,29.84,SSW,211,2.0,7.0,81,0.00,,SCT046,0.07,VWS V14.01,2014-09-01 19:20:00,
2014-09-01 15:25:00,80.2,74.2,29.84,SW,218,2.0,6.0,82,0.00,,SCT046,0.07,VWS V14.01,2014-09-01 19:25:00,
2014-09-01 15:30:00,80.4,74.4,29.84,SSE,153,6.0,6.0,82,0.00,,SCT046,0.07,VWS V14.01,2014-09-01 19:30:00,
2014-09-01 15:35:00,80.7,74.3,29.84,SSW,203,0.0,7.0,81,0.00,,SCT075,0.07,VWS V14.01,2014-09-01 19:35:00,
2014-09-01 15:40:00,81.2,74.8,29.84,SSE,156,3.0,7.0,81,0.00,,SCT075,0.07,VWS V14.01,2014-09-01 19:40:00,
2014-09-01 15:45:00,81.5,75.1,29.83,SSW,192,1.0,6.0,81,0.00,,SCT075,0.07,VWS V14.01,2014-09-01 19:45:00,
2014-09-01 15:50:00,81.8,75.0,29.83,SW,229,2.0,11.0,80,0.00,,SCT075,0.07,VWS V14.01,2014-09-01 19:50:00,
2014-09-01 15:55:00,81.9,75.5,29.83,SSW,202,2.0,5.0,81,0.00,,SCT075,0.07,VWS V14.01,2014-09-01 19:55:00,
2014-09-01 16:00:00,82.5,75.7,29.83,SSE,150,3.0,5.0,80,0.00,,SCT075,0.07,VWS V14.01,2014-09-01 20:00:00,
2014-09-01 16:06:00,82.7,74.8,29.83,SSW,206,2.0,8.0,77,0.00,,FEW044,0.07,VWS V14.01,2014-09-01 20:06:00,
2014-09-01 16:11:00,82.6,76.2,29.83,South,171,2.0,5.0,81,0.00,,FEW044,0.07,VWS V14.01,2014-09-01 20:11:00,
2014-09-01 16:16:00,82.6,75.8,29.83,South,186,0.0,7.0,80,0.00,,FEW044,0.07,VWS V14.01,2014-09-01 20:16:00,
2014-09-01 16:21:00,82.2,74.7,29.82,SW,217,3.0,9.0,78,0.00,,FEW044,0.07,VWS V14.01,2014-09-01 20:21:00,
2014-09-01 16:26:00,81.7,74.9,29.82,SW,225,0.0,7.0,80,0.00,,FEW044,0.07,VWS V14.01,2014-09-01 20:26:00,
2014-09-01 16:31:00,81.4,75.4,29.82,SW,215,1.0,3.0,82,0.00,,FEW044,0.07,VWS V14.01,2014-09-01 20:31:00,
2014-09-01 16:36:00,81.6,75.6,29.81,South,188,1.0,5.0,82,0.00,,BKN060,0.07,VWS V14.01,2014-09-01 20:36:00,
2014-09-01 16:41:00,81.9,75.9,29.81,SSE,163,2.0,4.0,82,0.00,,BKN060,0.07,VWS V14.01,2014-09-01 20:41:00,
2014-09-01 16:46:00,82.0,75.2,29.81,SW,226,6.0,7.0,80,0.00,,BKN060,0.07,VWS V14.01,2014-09-01 20:46:00,
2014-09-01 16:51:00,82.2,75.4,29.81,SW,227,0.0,3.0,80,0.00,,BKN060,0.07,VWS V14.01,2014-09-01 20:51:00,
2014-09-01 16:56:00,82.0,74.8,29.81,WSW,240,1.0,4.0,79,0.00,,BKN060,0.07,VWS V14.01,2014-09-01 20:56:00,
2014-09-01 17:01:00,81.6,74.5,29.82,SW,231,5.0,7.0,79,0.00,,BKN060,0.07,VWS V14.01,2014-09-01 21:01:00,
2014-09-01 17:06:00,80.9,73.8,29.82,SSW,209,2.0,6.0,79,0.00,,BKN060,0.07,VWS V14.01,2014-09-01 21:06:00,
2014-09-01 17:11:00,80.3,73.6,29.82,South,184,1.0,1.0,80,0.00,,BKN060,0.07,VWS V14.01,2014-09-01 21:11:00,
2014-09-01 17:17:00,79.8,73.4,29.83,South,182,1.0,2.0,81,0.00,,BKN060,0.07,VWS V14.01,2014-09-01 21:17:00,
2014-09-01 17:22:00,78.1,72.5,29.83,SSW,199,2.0,5.0,83,0.12,,BKN060,0.19,VWS V14.01,2014-09-01 21:22:00,
2014-09-01 17:27:00,75.9,71.8,29.83,SW,223,0.0,0.0,87,0.13,,BKN060,0.20,VWS V14.01,2014-09-01 21:27:00,
2014-09-01 17:32:00,75.4,72.9,29.83,SW,223,0.0,0.0,92,0.13,,BKN044,0.20,VWS V14.01,2014-09-01 21:32:00,
2014-09-01 17:37:00,75.0,72.8,29.82,SSW,205,0.0,0.0,93,0.13,,BKN044,0.20,VWS V14.01,2014-09-01 21:37:00,
2014-09-01 17:42:00,75.2,74.0,29.82,SSW,205,0.0,0.0,96,0.13,,BKN044,0.20,VWS V14.01,2014-09-01 21:42:00,
2014-09-01 17:47:00,75.5,74.6,29.82,SSW,205,0.0,0.0,97,0.13,,BKN044,0.20,VWS V14.01,2014-09-01 21:47:00,
2014-09-01 17:52:00,76.0,75.1,29.82,SSW,205,0.0,1.0,97,0.13,,BKN044,0.20,VWS V14.01,2014-09-01 21:52:00,
2014-09-01 17:57:00,76.1,75.2,29.82,SSW,201,1.0,1.0,97,0.13,,BKN044,0.20,VWS V14.01,2014-09-01 21:57:00,
2014-09-01 18:02:00,76.3,75.4,29.82,SSW,201,0.0,0.0,97,0.13,,BKN044,0.20,VWS V14.01,2014-09-01 22:02:00,
2014-09-01 18:07:00,76.5,75.9,29.82,SSW,201,0.0,0.0,98,0.13,,BKN044,0.20,VWS V14.01,2014-09-01 22:07:00,
2014-09-01 18:13:00,76.7,76.1,29.82,SSW,201,0.0,0.0,98,0.13,,BKN044,0.20,VWS V14.01,2014-09-01 22:13:00,
2014-09-01 18:18:00,76.7,75.8,29.82,SSW,201,0.0,0.0,97,0.13,,BKN044,0.20,VWS V14.01,2014-09-01 22:18:00,
2014-09-01 18:23:00,76.6,75.7,29.82,SSW,201,0.0,0.0,97,0.01,,BKN044,0.20,VWS V14.01,2014-09-01 22:23:00,
2014-09-01 18:28:00,76.5,75.6,29.82,SSW,204,0.0,0.0,97,0.00,,BKN044,0.20,VWS V14.01,2014-09-01 22:28:00,
2014-09-01 18:33:00,76.6,75.7,29.82,SSW,204,0.0,1.0,97,0.00,,SCT210,0.20,VWS V14.01,2014-09-01 22:33:00,
2014-09-01 18:38:00,76.6,75.7,29.82,SSW,204,0.0,0.0,97,0.00,,SCT210,0.20,VWS V14.01,2014-09-01 22:38:00,
2014-09-01 18:43:00,76.6,75.7,29.82,SSW,204,0.0,0.0,97,0.00,,SCT210,0.20,VWS V14.01,2014-09-01 22:43:00,
2014-09-01 18:48:00,76.6,76.0,29.82,SSW,204,0.0,0.0,98,0.00,,SCT210,0.20,VWS V14.01,2014-09-01 22:48:00,
2014-09-01 18:53:00,76.6,76.0,29.82,SSW,203,0.0,0.0,98,0.00,,SCT210,0.20,VWS V14.01,2014-09-01 22:53:00,
2014-09-01 18:58:00,76.4,75.5,29.82,SSE,160,0.0,0.0,97,0.00,,SCT210,0.20,VWS V14.01,2014-09-01 22:58:00,
2014-09-01 19:03:00,76.3,75.4,29.82,SSE,163,0.0,0.0,97,0.00,,SCT210,0.20,VWS V14.01,2014-09-01 23:03:00,
2014-09-01 19:09:00,76.2,75.3,29.82,SSE,163,0.0,0.0,97,0.00,,SCT210,0.20,VWS V14.01,2014-09-01 23:09:00,
2014-09-01 19:14:00,76.1,75.2,29.82,SSE,163,0.0,1.0,97,0.00,,SCT210,0.20,VWS V14.01,2014-09-01 23:14:00,
2014-09-01 19:19:00,75.9,75.0,29.82,SSE,163,0.0,2.0,97,0.00,,SCT210,0.20,VWS V14.01,2014-09-01 23:19:00,
2014-09-01 19:24:00,75.9,75.3,29.82,SSE,163,0.0,0.0,98,0.00,,SCT210,0.20,VWS V14.01,2014-09-01 23:24:00,
2014-09-01 19:29:00,75.7,75.1,29.82,SSE,163,0.0,0.0,98,0.00,,SCT210,0.20,VWS V14.01,2014-09-01 23:29:00,
2014-09-01 19:34:00,75.6,74.7,29.82,South,169,0.0,3.0,97,0.00,,FEW210,0.20,VWS V14.01,2014-09-01 23:34:00,
2014-09-01 19:39:00,75.5,74.6,29.83,South,169,0.0,0.0,97,0.00,,FEW210,0.20,VWS V14.01,2014-09-01 23:39:00,
2014-09-01 19:44:00,75.4,74.5,29.83,South,169,0.0,0.0,97,0.00,,FEW210,0.20,VWS V14.01,2014-09-01 23:44:00,
2014-09-01 19:49:00,75.3,74.4,29.83,South,169,0.0,0.0,97,0.00,,FEW210,0.20,VWS V14.01,2014-09-01 23:49:00,
2014-09-01 19:54:00,75.2,74.3,29.83,South,169,0.0,0.0,97,0.00,,FEW210,0.20,VWS V14.01,2014-09-01 23:54:00,
2014-09-01 19:59:00,75.1,74.5,29.83,South,169,0.0,0.0,98,0.00,,FEW210,0.20,VWS V14.01,2014-09-01 23:59:00,
2014-09-01 20:04:00,75.0,74.4,29.83,South,169,0.0,0.0,98,0.02,,FEW210,0.22,VWS V14.01,2014-09-02 00:04:00,
2014-09-01 20:09:00,74.9,74.3,29.83,South,169,0.0,2.0,98,0.02,,FEW210,0.22,VWS V14.01,2014-09-02 00:09:00,
2014-09-01 20:14:00,74.8,73.9,29.83,SSW,200,2.0,3.0,97,0.02,,FEW210,0.22,VWS V14.01,2014-09-02 00:14:00,
2014-09-01 20:20:00,74.5,73.6,29.83,SSW,200,0.0,3.0,97,0.02,,FEW065,0.22,VWS V14.01,2014-09-02 00:20:00,
2014-09-01 20:25:00,74.2,73.0,29.83,SSW,200,0.0,2.0,96,0.02,,FEW065,0.22,VWS V14.01,2014-09-02 00:25:00,
2014-09-01 20:30:00,74.0,72.8,29.83,SSW,200,0.0,0.0,96,0.02,,FEW065,0.22,VWS V14.01,2014-09-02 00:30:00,
2014-09-01 20:35:00,73.7,72.5,29.83,SSW,203,0.0,0.0,96,0.02,,FEW065,0.22,VWS V14.01,2014-09-02 00:35:00,
2014-09-01 20:40:00,73.5,72.3,29.83,SSW,203,0.0,0.0,96,0.02,,FEW065,0.22,VWS V14.01,2014-09-02 00:40:00,
2014-09-01 20:45:00,73.2,72.0,29.83,SSW,203,0.0,0.0,96,0.02,,FEW065,0.22,VWS V14.01,2014-09-02 00:45:00,
2014-09-01 20:50:00,73.0,72.1,29.83,SSW,203,0.0,0.0,97,0.02,,FEW065,0.22,VWS V14.01,2014-09-02 00:50:00,
2014-09-01 20:55:00,72.8,71.6,29.83,SSW,203,0.0,0.0,96,0.02,,FEW065,0.22,VWS V14.01,2014-09-02 00:55:00,
2014-09-01 21:00:00,72.6,71.7,29.83,SSW,203,2.0,2.0,97,0.02,,FEW065,0.22,VWS V14.01,2014-09-02 01:00:00,
2014-09-01 21:05:00,72.4,71.5,29.83,SSW,203,0.0,0.0,97,0.02,,FEW065,0.22,VWS V14.01,2014-09-02 01:05:00,
2014-09-01 21:11:00,72.3,71.4,29.83,SSW,203,0.0,1.0,97,0.00,,FEW065,0.22,VWS V14.01,2014-09-02 01:11:00,
2014-09-01 21:16:00,72.4,71.8,29.83,SSW,203,0.0,3.0,98,0.00,,FEW065,0.22,VWS V14.01,2014-09-02 01:16:00,
2014-09-01 21:21:00,72.5,71.9,29.83,SSW,203,0.0,0.0,98,0.00,,FEW065,0.22,VWS V14.01,2014-09-02 01:21:00,
2014-09-01 21:26:00,72.5,71.9,29.84,SSW,203,0.0,0.0,98,0.00,,FEW065,0.22,VWS V14.01,2014-09-02 01:26:00,
2014-09-01 21:31:00,72.5,71.9,29.84,SSW,203,0.0,0.0,98,0.00,,FEW065,0.22,VWS V14.01,2014-09-02 01:31:00,
2014-09-01 21:36:00,72.7,72.1,29.84,SSW,207,0.0,0.0,98,0.00,,SCT080,0.22,VWS V14.01,2014-09-02 01:36:00,
2014-09-01 21:41:00,72.8,72.2,29.84,SSW,207,0.0,0.0,98,0.00,,SCT080,0.22,VWS V14.01,2014-09-02 01:41:00,
2014-09-01 21:46:00,72.8,72.2,29.85,SSW,207,0.0,0.0,98,0.00,,SCT080,0.22,VWS V14.01,2014-09-02 01:46:00,
2014-09-01 21:51:00,72.8,72.2,29.85,SSW,207,0.0,0.0,98,0.00,,SCT080,0.22,VWS V14.01,2014-09-02 01:51:00,
2014-09-01 21:56:00,72.8,72.5,29.85,SSW,207,0.0,0.0,99,0.00,,SCT080,0.22,VWS V14.01,2014-09-02 01:56:00,
2014-09-01 22:02:00,72.9,72.6,29.85,SSW,207,0.0,0.0,99,0.00,,SCT080,0.22,VWS V14.01,2014-09-02 02:02:00,
2014-09-01 22:07:00,72.9,72.6,29.85,SSW,207,0.0,0.0,99,0.00,,SCT080,0.22,VWS V14.01,2014-09-02 02:07:00,
2014-09-01 22:12:00,72.8,72.5,29.86,SSW,207,0.0,0.0,99,0.00,,SCT080,0.22,VWS V14.01,2014-09-02 02:12:00,
2014-09-01 22:17:00,72.8,72.5,29.86,SSW,207,0.0,0.0,99,0.00,,SCT080,0.22,VWS V14.01,2014-09-02 02:17:00,
2014-09-01 22:22:00,72.7,72.4,29.85,South,187,0.0,0.0,99,0.00,,SCT080,0.22,VWS V14.01,2014-09-02 02:22:00,
2014-09-01 22:27:00,72.6,72.3,29.86,South,187,0.0,0.0,99,0.00,,SCT080,0.22,VWS V14.01,2014-09-02 02:27:00,
2014-09-01 22:32:00,72.6,72.3,29.86,South,187,1.0,1.0,99,0.00,,CLR,0.22,VWS V14.01,2014-09-02 02:32:00,
2014-09-01 22:37:00,72.5,72.2,29.86,SW,219,0.0,1.0,99,0.00,,CLR,0.22,VWS V14.01,2014-09-02 02:37:00,
2014-09-01 22:42:00,72.5,72.2,29.86,South,185,0.0,0.0,99,0.00,,CLR,0.22,VWS V14.01,2014-09-02 02:42:00,
2014-09-01 22:47:00,72.5,72.2,29.86,SSW,203,0.0,1.0,99,0.00,,CLR,0.22,VWS V14.01,2014-09-02 02:47:00,
2014-09-01 22:52:00,72.5,72.2,29.86,SSW,204,0.0,1.0,99,0.00,,CLR,0.22,VWS V14.01,2014-09-02 02:52:00,
2014-09-01 22:58:00,72.5,72.2,29.86,SW,227,0.0,4.0,99,0.00,,CLR,0.22,VWS V14.01,2014-09-02 02:58:00,